Location: Alafon
(8.4500°N, 4.2333°E)
Time: 04:51:10
(UTC+00:00)

Explorer 11/Cluster Stage 4 - All Passes

Search period start: 01 August 2021 00:00
Search period end: 11 August 2021 00:00
Orbit: 467 x 1257 km, 28.8° (Epoch: 31 July)

Date Brightness Start Highest point End Pass type
(mag) Time Alt. Az. Time Alt. Az. Time Alt. Az.
01 Aug - 04:23:03 10° SSW 04:28:33 34° SE 04:35:05 10° E visible
01 Aug - 06:10:38 10° WSW 06:17:30 71° NNW 06:25:31 10° NE daylight
01 Aug - 08:00:56 10° WNW 08:07:28 29° NNW 08:14:24 10° NE daylight
01 Aug - 09:53:17 10° NW 09:58:18 17° N 10:03:16 10° NNE daylight
01 Aug - 11:44:37 10° NNW 11:49:27 17° N 11:53:59 10° NE daylight
01 Aug - 13:33:44 10° NW 13:40:01 29° NNE 13:45:22 10° ENE daylight
01 Aug - 15:22:47 10° WNW 15:29:27 83° NNE 15:34:43 10° ESE daylight
01 Aug - 17:13:49 10° W 17:17:42 19° SW 17:21:04 10° S daylight
02 Aug - 04:11:51 10° SW 04:17:19 40° SE 04:23:57 10° E visible
02 Aug - 05:59:41 10° WSW 06:06:16 61° NNW 06:14:06 10° NE daylight
02 Aug - 07:50:12 10° WNW 07:56:21 26° NNW 08:02:57 10° NE daylight
02 Aug - 09:42:24 10° NW 09:47:18 17° N 09:52:09 10° NNE daylight
02 Aug - 11:33:12 10° NNW 11:38:28 18° N 11:43:23 10° NE daylight
02 Aug - 13:22:12 10° NW 13:28:57 34° NNE 13:34:43 10° E daylight
02 Aug - 15:11:25 10° WNW 15:18:20 82° SSW 15:23:47 10° ESE daylight
02 Aug - 17:03:04 10° WSW 17:06:35 17° SW 17:09:41 10° S daylight
03 Aug - 04:00:43 10° SW 04:06:06 47° SSE 04:12:45 10° ENE visible
03 Aug - 05:48:49 10° W 05:55:06 52° NNW 06:02:38 10° NE daylight
03 Aug - 07:39:30 10° WNW 07:45:16 23° NNW 07:51:29 10° NE daylight
03 Aug - 09:31:31 10° NW 09:36:17 16° N 09:41:05 10° NE daylight
03 Aug - 11:21:47 10° NNW 11:27:27 20° N 11:32:47 10° NE daylight
03 Aug - 13:10:40 10° NW 13:17:51 39° NNE 13:24:00 10° E daylight
03 Aug - 15:00:05 10° WNW 15:07:10 69° SSW 15:12:48 10° SE daylight
03 Aug - 16:52:28 10° WSW 16:55:27 14° SW 16:58:09 10° S daylight
04 Aug - 03:49:38 10° SW 03:54:54 56° SSE 04:01:31 10° ENE visible
04 Aug - 05:38:01 10° W 05:43:59 44° NNW 05:51:08 10° NE daylight
04 Aug - 07:28:53 10° WNW 07:34:13 21° NNW 07:40:00 10° NNE daylight
04 Aug - 09:20:35 10° NW 09:25:18 16° N 09:30:02 10° NE daylight
04 Aug - 11:10:21 10° NW 11:16:23 22° NNE 11:22:07 10° ENE daylight
04 Aug - 12:59:09 10° NW 13:06:43 46° NNE 13:13:12 10° E daylight
04 Aug - 14:48:47 10° WNW 14:55:57 58° SSW 15:01:45 10° SE daylight
04 Aug - 16:42:05 10° WSW 16:44:18 12° SW 16:46:24 10° SSW daylight
05 Aug - 01:53:50 10° SSE 01:55:38 12° SE 01:57:32 10° ESE visible
05 Aug - 03:38:37 10° SW 03:43:45 67° SSE 03:50:14 10° ENE visible
05 Aug - 05:27:16 10° W 05:32:53 37° NNW 05:39:36 10° NE daylight
05 Aug - 07:18:18 10° NW 07:23:12 19° N 07:28:31 10° NNE daylight
05 Aug - 09:09:38 10° NNW 09:14:17 16° N 09:19:03 10° NE daylight
05 Aug - 10:58:56 10° NW 11:05:18 24° NNE 11:11:25 10° ENE daylight
05 Aug - 12:47:41 10° NW 12:55:32 53° NNE 13:02:20 10° E daylight
05 Aug - 14:37:31 10° WNW 14:44:43 50° SSW 14:50:39 10° SE daylight
05 Aug - 16:32:27 10° SW 16:33:11 10° SW 16:33:54 10° SSW daylight
06 Aug - 01:42:06 10° S 01:44:31 14° SE 01:47:11 10° ESE night (unlit)
06 Aug - 03:27:40 10° WSW 03:32:37 81° SSE 03:38:56 10° ENE visible
06 Aug - 05:16:37 10° W 05:21:50 31° NNW 05:28:04 10° NE daylight
06 Aug - 07:07:46 10° NW 07:12:12 17° N 07:17:01 10° NNE daylight
06 Aug - 08:58:37 10° NNW 09:03:18 16° N 09:08:05 10° NE daylight
06 Aug - 10:47:32 10° NW 10:54:12 27° NNE 11:00:39 10° ENE daylight
06 Aug - 12:36:15 10° NW 12:44:18 62° NNE 12:51:24 10° ESE daylight
06 Aug - 14:26:19 10° WNW 14:33:28 43° SW 14:39:29 10° SE daylight
07 Aug - 01:30:37 10° S 01:33:25 17° SE 01:36:35 10° ESE night (unlit)
07 Aug - 03:16:46 10° WSW 03:21:32 83° NNW 03:27:36 10° ENE visible
07 Aug - 05:06:02 10° WNW 05:10:49 26° NNW 05:16:30 10° NE visible
07 Aug - 06:57:16 10° NW 07:01:14 16° N 07:05:31 10° NNE daylight
07 Aug - 08:47:35 10° NNW 08:52:17 17° N 08:57:10 10° NE daylight
07 Aug - 10:36:08 10° NW 10:43:03 30° NNE 10:49:50 10° ENE daylight
07 Aug - 12:24:50 10° NW 12:33:04 71° NNE 12:40:24 10° ESE daylight
07 Aug - 14:15:10 10° W 14:22:11 37° SW 14:28:14 10° SSE daylight
08 Aug - 01:19:16 10° SSW 01:22:21 20° SE 01:25:51 10° E night (unlit)
08 Aug - 03:05:56 10° WSW 03:10:29 67° NNW 03:16:15 10° NE visible
08 Aug - 04:55:31 10° WNW 04:59:50 22° NNW 05:04:53 10° NNE visible
08 Aug - 06:46:49 10° NNW 06:50:18 14° N 06:54:02 10° NNE daylight
08 Aug - 08:36:30 10° NNW 08:41:15 17° N 08:46:15 10° NE daylight
08 Aug - 10:24:45 10° NW 10:31:52 33° NNE 10:38:58 10° E daylight
08 Aug - 12:13:28 10° WNW 12:21:46 81° NNE 12:29:20 10° ESE daylight
08 Aug - 14:04:04 10° W 14:10:54 32° SW 14:16:56 10° SSE daylight
09 Aug - 01:08:00 10° SSW 01:11:17 25° SE 01:15:01 10° E night (unlit)
09 Aug - 02:55:09 10° WSW 02:59:28 52° NNW 03:04:52 10° NE visible
09 Aug - 04:45:06 10° WNW 04:48:54 19° NNW 04:53:15 10° NNE visible
09 Aug - 06:36:23 10° NNW 06:39:21 13° N 06:42:32 10° NNE daylight
09 Aug - 08:25:24 10° NNW 08:30:14 18° NNE 08:35:21 10° NE daylight
09 Aug - 10:13:24 10° NW 10:20:40 37° NNE 10:28:03 10° E daylight
09 Aug - 12:02:09 10° WNW 12:10:28 88° SSW 12:18:12 10° ESE daylight
09 Aug - 13:53:04 10° W 13:59:38 28° SW 14:05:32 10° SSE daylight
10 Aug - 00:56:50 10° SSW 01:00:14 31° SSE 01:04:08 10° E night (unlit)
10 Aug - 02:44:26 10° W 02:48:30 41° NNW 02:53:27 10° NE visible
10 Aug - 04:34:48 10° NW 04:37:59 16° NNW 04:41:33 10° NNE visible
10 Aug - 06:25:58 10° NNW 06:28:27 12° N 06:31:03 10° NNE daylight
10 Aug - 08:14:15 10° NNW 08:19:10 19° NNE 08:24:27 10° ENE daylight
10 Aug - 10:02:05 10° NW 10:09:26 41° NNE 10:17:04 10° E daylight
10 Aug - 11:50:52 10° WNW 11:59:08 77° SSW 12:07:00 10° SE daylight
10 Aug - 13:42:09 10° W 13:48:21 24° SSW 13:54:04 10° SSE daylight
